Погода в Скадовске

Украина / Херсонская область     46°07′08″N   32°54′39″E
темп.,
°C
ветер,
м/с
пор.,
м/с
влажн.,
%
обл.,
%
осадки,
мм/ч
давл.,
гПа
погр.,
м
18 апреля, вс
вс1800:00+9всв4464100 0.0 101947
03:00+8всв5573100 0.0 1018123
06:00+8св5779100 0.0 1018209
09:00+8всв577885 0.0 1018236
12:00+10в576687 0.0 1018132
15:00+10в466599 0.0 101773
18:00+11всв5770100 0.0 101659
21:00+10вюв5787100 0.0 101781
19 апреля, пн
пн1900:00+10в3486100 0.0 101744
03:00+10всв4485100 0.0 101643
06:00+9всв4585100 0.0 101687
09:00+9всв5784100 0.0 1016152
12:00+10всв568292 0.0 1015105
15:00+10в4578100 0.0 101473
18:00+11в6878100 0.0 101295
21:00+10всв6883100 0.0 1012137
20 апреля, вт
вт2000:00+9всв91395100 2.8 1008350
03:00+9всв91496100 10.3 1005452
06:00+9в101398100 7.4 1001342
09:00+10ююз91297100 13.0 999328
12:00+9ююз91489100 0.8 999583
15:00+9юз4594100 0.9 997174
18:00+9сз141789100 0.5 1001918
21:00+9зсз101588100 2.0 1008630
21 апреля, ср
ср2100:00+10з101384100 0.1 1011368
03:00+9з6885100 0.1 1013199
06:00+9зсз5881100 0.0 1015322
09:00+9з347663 0.0 1017161
12:00+10юз33725 0.0 1018123
15:00+11юз46747 0.0 1019160
18:00+11юз578111 0.0 1019136
21:00+10ююз568519 0.0 102086
22 апреля, чт
чт2200:00+10ююз558686 0.0 102080
03:00+10ю568794 0.0 1021108
06:00+10ю4588100 0.0 102191
09:00+10ю458899 0.0 102297
12:00+10юз468594 0.3 102397
15:00+11юз458410 0.3 102385
18:00+11юз468450 0.0 1023105
21:00+11ю45840 0.0 102359